C/2020 F2 ( ATLAS )

Japanese version
Home page
Updated on May 4, 2021

---------------------------------------------------------------------

* Profile

Discovery Date March 21 and 22, 2020
Magnitude 19.3 mag and 19.3 mag
Discoverer Asteroid Terrestrial-Impact Last Alert System (ATLAS) search program, Pan-STARRS 1 telescope (Haleakala)

* Pictures

* Orbital Elements

Epoch 2022 June 30.0 TT = JDT 2459760.5
T 2022 July 15.65359 TT                                 Rudenko
q   8.8173635            (2000.0)            P               Q
z  -0.0005830      Peri.   48.35187     -0.89903149     -0.34782429
 +/-0.0000008      Node   250.27251     -0.43594593     +0.76805860
e   1.0051401      Incl.  163.58488     +0.04115248     +0.53768416
From 483 observations 2019 May 27-2021 May 2, mean residual 0".5.

* Finding Charts

* Magnitudes Graph

        m1 = -1.5 + 5 log d + 15.0 log r

---------------------------------------------------------------------

The orbital elements are published on M.P.E.C. 2021-J28.
The charts are made with StellaNavigator Ver.10 (AstroArts).
The magnitudes graphs are made with Comet for Windows.

---------------------------------------------------------------------

Copyright(C) Seiichi Yoshida (comet@aerith.net). All rights reserved.